Location: Monrovia
(34.7865°N, 86.7139°W)
Time: 20:50:56
(UTC+00:00)

Cosmos 2074 Rocket - Pass Details

Date: 14 July 2020
Orbit: 967 x 986 km, 82.9° (Epoch: 08 August)

Event Time Altitude Azimuth Distance (km) Brightness Sun altitude
Exits shadow 02:34:54 19° 165° (SSE) 2,124 5.3 -16.6°
Maximum altitude 02:39:19 58° 92° (E) 1,118 4.1 -17.3°
Drops below altitude 10° 02:45:24 10° 15° (NNE) 2,714 6.7 -18.2°
Sets 02:47:56 0° 12° (NNE) 3,664 7.5 -18.5°
